+ View the NASA Portal
+ Center for Near-Earth Object Studies
IMPORTANT:
The SSD Announcement email list is now available. Major changes are coming in the near future, including possible hostname and/or URL changes. To be notified of such changes, subscribe to this email list.
Please visit
this page
for more details.
Don't show this message again
JPL Small-Body Database Browser
Search:
[
help
]
146336 (2001 OK13)
Classification:
Main-belt Asteroid
SPK-ID:
2146336
[
Ephemeris
|
Orbit Diagram
|
Orbital Elements
|
Mission Design
|
Physical Parameters
|
Discovery Circumstances
]
[ show orbit diagram ]
Orbital Elements at Epoch 2458600.5 (2019-Apr-27.0) TDB
Reference:
JPL 11
(heliocentric ecliptic J2000)
Element
Value
Uncertainty (1-sigma)
Units
e
.3330056127801779
6.7556e-08
a
2.552212460096747
1.7946e-08
au
q
1.702311385877024
1.7755e-07
au
i
3.520857598442705
7.4983e-06
deg
node
102.5016782990427
9.1939e-05
deg
peri
243.0929614774074
9.319e-05
deg
M
116.2212154796295
2.1905e-05
deg
t
p
2458119.708726917349
(2018-Jan-01.20872692)
8.5931e-05
TDB
period
1489.270763478562
4.08
1.5708e-05
4.301e-08
d
yr
n
.2417290454014759
2.5496e-09
deg/d
Q
3.402113534316469
2.3922e-08
au
Orbit Determination Parameters
# obs. used (total)
377
data-arc span
10683 days (29.25 yr)
first obs. used
1989-11-05
last obs. used
2019-02-04
planetary ephem.
DE431
SB-pert. ephem.
SB431-N16
condition code
0
norm. resid. RMS
.61549
source
ORB
producer
Otto Matic
solution date
2019-Jul-13 09:38:32
Additional Information
Earth MOID
= .697786 au
Jupiter MOID
= 2.02448 au
T_jup
= 3.357
[ show covariance matrix ]
[
Ephemeris
|
Orbit Diagram
|
Orbital Elements
|
Mission Design
|
Physical Parameters
|
Discovery Circumstances
]
Physical Parameter Table
Parameter
Symbol
Value
Units
Sigma
Reference
Notes
absolute magnitude
H
16.0
n/a
MPO417787
146336 (2001 OK13)
Discovered 2001-Jul-20 by LINEAR at Socorro
Reference:
20070106/Numbers.arc
Last Updated:
2007-01-09
[
Ephemeris
|
Orbit Diagram
|
Orbital Elements
|
Mission Design
|
Physical Parameters
|
Discovery Circumstances
]
2019-Dec-07 02:00 UT
(server date/time)
Site Manager:
Ryan S. Park
Webmaster
:
Alan B. Chamberlin